Regional Weather Roundup
Issued by NWS

Home | Current Version | Previous Version | Text Only | Print | Product List | Glossary Off
Versions: 1 2 3 4 5 6 7 8 9 10 11 12 13 14 15 16 17 18 19 20 21 22 23 24 25 26 27 28 29 30 31 32 33 34 35 36 37 38 39 40 41 42 43 44 45 46 47 48 49 50

007
ASUS45 KCYS 260410
RWRWY

WYOMING REGIONAL WEATHER ROUNDUP
NATIONAL WEATHER SERVICE CHEYENNE WY
1000 PM MDT MON JUL 25 2016

NOTE:  "FAIR" INDICATES FEW OR NO CLOUDS BELOW 12,000 FEET
WITH NO SIGNIFICANT WEATHER AND/OR OBSTRUCTIONS TO VISIBILITY.

WYZ001-260500-
YELLOWSTONE NATIONAL PARK

CITY           SKY/WX    TMP DP  RH WIND       PRES   REMARKS
LK YELLOWSTONE   N/A     54  32  43 CALM      30.36R
W YELLOWSTONE  NOT AVBL

$$
WYZ002>013-054>058-071-098>099-260500-
NORTHERN WYOMING

CITY           SKY/WX    TMP DP  RH WIND       PRES   REMARKS
JACKSON        FAIR      64  25  22 E3        30.22R
CODY           FAIR      79  30  17 N6        30.09R
GREYBULL       FAIR      84  30  14 CALM      29.96R
WORLAND        FAIR      76  30  18 CALM      29.98R
SHERIDAN       FAIR      70  46  42 S5        30.00R
BUFFALO        FAIR      76  35  22 W9        30.09R
GILLETTE       FAIR      70  39  32 S7        30.03R
HULETT         FAIR      75  45  33 SE8       30.06R
NEWCASTLE      FAIR      81  43  26 E13G21    30.07R

$$
WYZ014>020-022>026-101>103-260500-
CENTRAL WYOMING

CITY           SKY/WX    TMP DP  RH WIND       PRES   REMARKS
BIG PINEY      FAIR      61  35  37 S12       30.28R
PINEDALE       FAIR      61  34  36 W8        30.27S
DUBOIS         MOCLDY    68  21  17 NW8       30.28R
LANDER         FAIR      83  29  14 N3        30.12R
RIVERTON       FAIR      79  28  15 SW13      30.12R
CASPER         FAIR      77  39  25 E7        30.09R
DOUGLAS          N/A    N/A N/A N/A MISG      30.08R

$$
WYZ021-027>030-104>119-260500-
SOUTHERN WYOMING

CITY           SKY/WX    TMP DP  RH WIND       PRES   REMARKS
EVANSTON       FAIR      71  30  21 S9        30.28R
KEMMERER         N/A    N/A N/A N/A NW7       30.29R
FORT BRIDGER   FAIR      73  28  19 SW12      30.30R
ROCK SPRINGS   FAIR      72  32  23 S9        30.25R
DIXON          FAIR      73  35  25 NE3       30.28R
RAWLINS        FAIR      75  26  16 SW6       30.24R
SARATOGA       FAIR      72  32  23 SW9       30.27S
LARAMIE        FAIR      65  31  28 E8        30.28R
CHEYENNE       FAIR      70  53  54 SE7       30.21R
TORRINGTON     FAIR      78  61  55 E12       30.07R
PINE BLUFFS    FAIR      72  61  68 SE15G24   30.16R

$$




USA.gov is the U.S. government's official web portal to all federal, state and local government web resources and services.